• en France
  • Liste des pays
  • À 7 jours
  • Température de l'eau
  • Carte satellitaire
  • Carte météo
  • Widgets météo
  • user-avatar
    Se connecter

    Météo par heure à Selfoss

    Ce jour, 20 Février, Mardi

    Heure Température Précipitation Vent Pression Humidité
    00:00 0°C° 0,5 mm 10 m/s 746 mmHg 83%
    01:00 -1°C° 0,5 mm 11 m/s 747 mmHg 81%
    02:00 -1°C° 0,5 mm 12 m/s 748 mmHg 79%
    03:00 -2°C° 0,2 mm 11 m/s 749 mmHg 79%
    04:00 -2°C° 0,2 mm 11 m/s 751 mmHg 78%
    05:00 -1°C° 0 mm 8 m/s 752 mmHg 79%
    06:00 -2°C° 0,3 mm 8 m/s 753 mmHg 78%
    07:00 -3°C° 0,3 mm 9 m/s 754 mmHg 77%
    08:00 -3°C° 0,3 mm 10 m/s 756 mmHg 77%
    09:00 -3°C° 0,2 mm 9 m/s 757 mmHg 77%
    10:00 -4°C° 0,2 mm 9 m/s 758 mmHg 76%
    11:00 -2°C° 0 mm 7 m/s 758 mmHg 78%
    12:00 -2°C° 0,2 mm 7 m/s 759 mmHg 77%
    13:00 -2°C° 0,2 mm 7 m/s 760 mmHg 76%
    14:00 -2°C° 0,2 mm 8 m/s 760 mmHg 76%
    15:00 -2°C° 0,2 mm 7 m/s 761 mmHg 76%
    16:00 -2°C° 0,2 mm 7 m/s 761 mmHg 77%
    17:00 -3°C° 0,2 mm 6 m/s 762 mmHg 78%
    18:00 -3°C° 0,2 mm 6 m/s 762 mmHg 78%
    19:00 -2°C° 0,2 mm 5 m/s 763 mmHg 78%
    20:00 -2°C° 0,2 mm 4 m/s 763 mmHg 78%
    21:00 -2°C° 0,1 mm 4 m/s 763 mmHg 78%
    22:00 -2°C° 0,1 mm 4 m/s 762 mmHg 78%
    23:00 -2°C° 0,1 mm 4 m/s 762 mmHg 79%

    Demain, 21 Février, Mercredi

    Heure Température Précipitation Vent Pression Humidité
    00:00 -2°C° 0,1 mm 5 m/s 761 mmHg 80%
    01:00 -3°C° 0,1 mm 7 m/s 760 mmHg 81%
    02:00 -4°C° 0,1 mm 9 m/s 759 mmHg 82%
    03:00 -4°C° 0,9 mm 11 m/s 756 mmHg 82%
    04:00 -4°C° 0,9 mm 14 m/s 754 mmHg 82%
    05:00 -3°C° 0,9 mm 16 m/s 751 mmHg 81%
    06:00 -2°C° 3,8 mm 18 m/s 748 mmHg 84%
    07:00 -1°C° 3,8 mm 20 m/s 745 mmHg 86%
    08:00 -1°C° 3,8 mm 22 m/s 742 mmHg 89%
    09:00 +1°C° 3,9 mm 20 m/s 741 mmHg 91%
    10:00 +2°C° 3,9 mm 18 m/s 741 mmHg 94%
    11:00 +4°C° 3,9 mm 16 m/s 740 mmHg 96%
    12:00 +3°C° 0,9 mm 13 m/s 740 mmHg 94%
    13:00 +2°C° 0,9 mm 10 m/s 741 mmHg 93%
    14:00 +1°C° 0,9 mm 8 m/s 742 mmHg 91%
    15:00 +2°C° 0,8 mm 7 m/s 741 mmHg 90%
    16:00 +1°C° 0,8 mm 6 m/s 741 mmHg 90%
    17:00 +1°C° 0,8 mm 5 m/s 741 mmHg 89%
    18:00 0°C° 1 mm 4 m/s 741 mmHg 90%
    19:00 0°C° 1 mm 4 m/s 741 mmHg 91%
    20:00 +1°C° 1 mm 3 m/s 741 mmHg 92%
    21:00 0°C° 0,8 mm 4 m/s 741 mmHg 92%
    22:00 0°C° 0,8 mm 4 m/s 740 mmHg 92%
    23:00 0°C° 0,8 mm 4 m/s 740 mmHg 91%

    Après-demain, 22 Février, Jeudi

    Heure Température Précipitation Vent Pression Humidité
    00:00 0°C° 0,4 mm 5 m/s 740 mmHg 89%
    01:00 0°C° 0,4 mm 5 m/s 739 mmHg 86%
    02:00 -1°C° 0,4 mm 6 m/s 739 mmHg 84%
    03:00 -1°C° 0,4 mm 7 m/s 739 mmHg 83%
    04:00 -2°C° 0,4 mm 8 m/s 739 mmHg 82%
    05:00 -3°C° 0,4 mm 9 m/s 738 mmHg 82%
    06:00 -4°C° 0,6 mm 9 m/s 739 mmHg 82%
    07:00 -5°C° 0,6 mm 9 m/s 739 mmHg 83%
    08:00 -8°C° 0,6 mm 10 m/s 740 mmHg 84%
    09:00 -7°C° 0,3 mm 10 m/s 741 mmHg 79%
    10:00 -7°C° 0,3 mm 11 m/s 742 mmHg 75%
    11:00 -7°C° 0,3 mm 12 m/s 743 mmHg 70%
    12:00 -7°C° 0,4 mm 12 m/s 743 mmHg 71%
    13:00 -7°C° 0,4 mm 13 m/s 743 mmHg 71%
    14:00 -8°C° 0,4 mm 14 m/s 743 mmHg 71%
    15:00 -7°C° 0,3 mm 13 m/s 744 mmHg 71%
    16:00 -7°C° 0,3 mm 12 m/s 744 mmHg 72%
    17:00 -7°C° 0,3 mm 11 m/s 745 mmHg 72%
    18:00 -7°C° 0,3 mm 11 m/s 745 mmHg 72%
    19:00 -6°C° 0,3 mm 11 m/s 746 mmHg 72%
    20:00 -6°C° 0,3 mm 11 m/s 746 mmHg 73%
    21:00 -5°C° 0,3 mm 10 m/s 747 mmHg 73%
    22:00 -5°C° 0,3 mm 10 m/s 747 mmHg 73%
    23:00 -4°C° 0,3 mm 9 m/s 748 mmHg 74%

    23 Février, Vendredi

    Heure Température Précipitation Vent Pression Humidité
    00:00 -4°C° 0,3 mm 9 m/s 748 mmHg 75%
    01:00 -4°C° 0,3 mm 8 m/s 748 mmHg 76%
    02:00 -4°C° 0,3 mm 8 m/s 749 mmHg 76%
    03:00 -3°C° 0,1 mm 7 m/s 749 mmHg 78%
    04:00 -3°C° 0,1 mm 7 m/s 749 mmHg 79%
    05:00 -3°C° 0,1 mm 6 m/s 749 mmHg 80%
    06:00 -4°C° 0 mm 7 m/s 749 mmHg 80%
    07:00 -4°C° 0 mm 7 m/s 749 mmHg 80%
    08:00 -5°C° 0 mm 8 m/s 749 mmHg 81%
    09:00 -4°C° 0,2 mm 9 m/s 749 mmHg 81%
    10:00 -3°C° 0,2 mm 10 m/s 748 mmHg 82%
    11:00 -2°C° 0,2 mm 12 m/s 748 mmHg 82%
    12:00 -2°C° 0,2 mm 13 m/s 746 mmHg 81%
    13:00 -1°C° 0,2 mm 14 m/s 744 mmHg 79%
    14:00 -2°C° 0,2 mm 16 m/s 743 mmHg 78%
    15:00 0°C° 1,4 mm 16 m/s 741 mmHg 84%
    16:00 +1°C° 1,4 mm 17 m/s 740 mmHg 90%
    17:00 +2°C° 1,4 mm 17 m/s 738 mmHg 96%
    18:00 +2°C° 1,3 mm 17 m/s 738 mmHg 95%
    19:00 +2°C° 1,3 mm 17 m/s 738 mmHg 94%
    20:00 +2°C° 1,3 mm 17 m/s 738 mmHg 93%
    21:00 +2°C° 1,1 mm 18 m/s 738 mmHg 93%
    22:00 +2°C° 1,1 mm 19 m/s 738 mmHg 92%
    23:00 +2°C° 1,1 mm 19 m/s 738 mmHg 92%

    24 Février, Samedi

    Heure Température Précipitation Vent Pression Humidité
    00:00 +2°C° 2,4 mm 19 m/s 738 mmHg 92%
    01:00 +2°C° 2,4 mm 18 m/s 738 mmHg 93%
    02:00 +2°C° 2,4 mm 18 m/s 738 mmHg 93%
    03:00 +2°C° 2,6 mm 16 m/s 738 mmHg 92%
    04:00 +2°C° 2,6 mm 15 m/s 739 mmHg 92%
    05:00 +3°C° 2,6 mm 13 m/s 740 mmHg 91%
    06:00 +2°C° 0,8 mm 12 m/s 741 mmHg 87%
    07:00 +2°C° 0,8 mm 12 m/s 743 mmHg 83%
    08:00 +1°C° 0,8 mm 11 m/s 744 mmHg 79%
    09:00 +1°C° 0,2 mm 11 m/s 745 mmHg 77%
    10:00 +1°C° 0,2 mm 10 m/s 747 mmHg 75%
    11:00 +1°C° 0,2 mm 10 m/s 748 mmHg 73%
    12:00 +1°C° 0,2 mm 10 m/s 749 mmHg 73%
    13:00 +1°C° 0,2 mm 10 m/s 750 mmHg 73%
    14:00 +1°C° 0,2 mm 10 m/s 752 mmHg 72%
    15:00 +1°C° 0,2 mm 9 m/s 753 mmHg 73%
    16:00 +1°C° 0,2 mm 9 m/s 754 mmHg 74%
    17:00 0°C° 0,2 mm 8 m/s 755 mmHg 75%
    18:00 0°C° 0,1 mm 8 m/s 756 mmHg 75%
    19:00 0°C° 0,1 mm 7 m/s 757 mmHg 76%
    20:00 0°C° 0,1 mm 7 m/s 758 mmHg 76%
    21:00 +1°C° 0,1 mm 6 m/s 759 mmHg 76%
    22:00 +1°C° 0,1 mm 6 m/s 760 mmHg 76%
    23:00 +1°C° 0,1 mm 5 m/s 761 mmHg 76%

    25 Février, Dimanche

    Heure Température Précipitation Vent Pression Humidité
    00:00 0°C° 0 mm 5 m/s 762 mmHg 76%
    01:00 0°C° 0 mm 4 m/s 762 mmHg 76%
    02:00 +1°C° 0 mm 3 m/s 763 mmHg 77%
    03:00 +1°C° 0,1 mm 3 m/s 763 mmHg 79%
    04:00 +1°C° 0,1 mm 3 m/s 763 mmHg 81%
    05:00 +1°C° 0,1 mm 3 m/s 763 mmHg 83%
    06:00 0°C° 0,5 mm 4 m/s 763 mmHg 84%
    07:00 0°C° 0,5 mm 5 m/s 763 mmHg 86%
    08:00 -1°C° 0,5 mm 6 m/s 763 mmHg 88%
    09:00 0°C° 1 mm 7 m/s 763 mmHg 90%
    10:00 +1°C° 1 mm 8 m/s 763 mmHg 92%
    11:00 +2°C° 1 mm 9 m/s 763 mmHg 94%
    12:00 +2°C° 1,2 mm 10 m/s 762 mmHg 93%
    13:00 +2°C° 1,2 mm 11 m/s 762 mmHg 91%
    14:00 +2°C° 1,2 mm 12 m/s 762 mmHg 90%
    15:00 +2°C° 0,8 mm 12 m/s 762 mmHg 89%
    16:00 +2°C° 0,8 mm 11 m/s 763 mmHg 88%
    17:00 +2°C° 0,8 mm 11 m/s 763 mmHg 87%
    18:00 +2°C° 0,1 mm 11 m/s 763 mmHg 87%
    19:00 +2°C° 0,1 mm 11 m/s 764 mmHg 87%
    20:00 +2°C° 0,1 mm 10 m/s 765 mmHg 86%
    21:00 +2°C° 0 mm 11 m/s 765 mmHg 86%
    22:00 +2°C° 0 mm 11 m/s 766 mmHg 85%
    23:00 +2°C° 0 mm 11 m/s 766 mmHg 85%
    Voir plus